Time,TemperatureF,DewpointF,PressureIn,WindDirection,WindDirectionDegrees,WindSpeedMPH,WindSpeedGustMPH,Humidity,HourlyPrecipIn,Conditions,Clouds,dailyrainin,SoftwareType,DateUTC
2013-01-04 00:07:00,28.7,24.0,29.91,WSW,253,24.0,32.0,82,0.00,,,0.00,weatherlink.com 1.10,2013-01-04 05:07:00,
2013-01-04 00:21:00,28.6,24.0,29.91,West,261,25.0,30.0,83,0.00,,,0.00,weatherlink.com 1.10,2013-01-04 05:21:00,
2013-01-04 00:36:00,28.8,24.0,29.88,West,265,22.0,30.0,83,0.00,,,0.00,weatherlink.com 1.10,2013-01-04 05:36:00,
2013-01-04 00:51:00,28.9,24.0,29.87,SW,229,19.0,35.0,83,0.00,,,0.00,weatherlink.com 1.10,2013-01-04 05:51:00,
2013-01-04 01:06:00,29.0,25.0,29.85,WSW,238,18.0,32.0,84,0.00,,,0.00,weatherlink.com 1.10,2013-01-04 06:06:00,
2013-01-04 01:21:00,28.6,24.0,29.85,SW,232,18.0,27.0,84,0.00,,,0.00,weatherlink.com 1.10,2013-01-04 06:21:00,
2013-01-04 01:36:00,28.3,24.0,29.84,WSW,252,16.0,28.0,85,0.00,,,0.00,weatherlink.com 1.10,2013-01-04 06:36:00,
2013-01-04 01:51:00,28.3,24.0,29.82,SW,225,25.0,32.0,85,0.00,,,0.00,weatherlink.com 1.10,2013-01-04 06:51:00,
2013-01-04 02:06:00,28.4,24.0,29.80,SW,227,27.0,32.0,83,0.00,,,0.00,weatherlink.com 1.10,2013-01-04 07:06:00,
2013-01-04 02:21:00,28.4,24.0,29.80,WSW,257,25.0,35.0,82,0.00,,,0.00,weatherlink.com 1.10,2013-01-04 07:21:00,
2013-01-04 02:37:00,28.3,23.0,29.81,SW,215,19.0,29.0,81,0.00,,,0.00,weatherlink.com 1.10,2013-01-04 07:37:00,
2013-01-04 02:52:00,28.5,23.0,29.82,SW,223,17.0,34.0,81,0.00,,,0.00,weatherlink.com 1.10,2013-01-04 07:52:00,
2013-01-04 03:07:00,28.7,24.0,29.83,WSW,252,14.0,26.0,81,0.00,,,0.00,weatherlink.com 1.10,2013-01-04 08:07:00,
2013-01-04 03:22:00,28.6,23.0,29.83,WSW,241,20.0,25.0,80,0.00,,,0.00,weatherlink.com 1.10,2013-01-04 08:22:00,
2013-01-04 03:37:00,28.8,24.0,29.83,WNW,295,8.0,26.0,81,0.00,,,0.00,weatherlink.com 1.10,2013-01-04 08:37:00,
2013-01-04 03:52:00,28.9,24.0,29.82,SW,230,19.0,27.0,82,0.00,,,0.00,weatherlink.com 1.10,2013-01-04 08:52:00,
2013-01-04 04:07:00,29.2,25.0,29.81,WSW,245,25.0,31.0,83,0.00,,,0.00,weatherlink.com 1.10,2013-01-04 09:07:00,
2013-01-04 04:22:00,29.4,25.0,29.82,West,259,19.0,34.0,83,0.00,,,0.00,weatherlink.com 1.10,2013-01-04 09:22:00,
2013-01-04 04:37:00,29.7,25.0,29.82,WSW,242,20.0,32.0,83,0.00,,,0.00,weatherlink.com 1.10,2013-01-04 09:37:00,
2013-01-04 04:52:00,29.5,25.0,29.81,West,269,17.0,39.0,83,0.00,,,0.00,weatherlink.com 1.10,2013-01-04 09:52:00,
2013-01-04 05:07:00,29.6,25.0,29.81,WNW,285,24.0,32.0,83,0.00,,,0.00,weatherlink.com 1.10,2013-01-04 10:07:00,
2013-01-04 05:22:00,29.3,24.0,29.82,NW,317,20.0,37.0,82,0.00,,,0.00,weatherlink.com 1.10,2013-01-04 10:22:00,
2013-01-04 05:37:00,29.2,24.0,29.82,WNW,292,28.0,35.0,81,0.00,,,0.00,weatherlink.com 1.10,2013-01-04 10:37:00,
2013-01-04 05:52:00,29.1,24.0,29.83,West,281,21.0,32.0,80,0.00,,,0.00,weatherlink.com 1.10,2013-01-04 10:52:00,
2013-01-04 06:07:00,28.7,24.0,29.83,WSW,258,20.0,33.0,82,0.00,,,0.00,weatherlink.com 1.10,2013-01-04 11:07:00,
2013-01-04 06:23:00,28.6,23.0,29.83,West,278,35.0,35.0,80,0.00,,,0.00,weatherlink.com 1.10,2013-01-04 11:23:00,
2013-01-04 06:37:00,28.4,23.0,29.83,West,273,13.0,28.0,81,0.00,,,0.00,weatherlink.com 1.10,2013-01-04 11:37:00,
2013-01-04 06:52:00,28.3,23.0,29.82,SW,221,17.0,32.0,81,0.00,,,0.00,weatherlink.com 1.10,2013-01-04 11:52:00,
2013-01-04 07:07:00,28.1,23.0,29.82,WNW,289,21.0,30.0,81,0.00,,,0.00,weatherlink.com 1.10,2013-01-04 12:07:00,
2013-01-04 07:22:00,28.0,23.0,29.82,West,266,24.0,33.0,81,0.00,,,0.00,weatherlink.com 1.10,2013-01-04 12:22:00,
2013-01-04 07:37:00,27.9,23.0,29.83,West,268,11.0,24.0,82,0.00,,,0.00,weatherlink.com 1.10,2013-01-04 12:37:00,
2013-01-04 07:52:00,27.9,23.0,29.82,West,271,22.0,28.0,82,0.00,,,0.00,weatherlink.com 1.10,2013-01-04 12:52:00,
2013-01-04 08:07:00,28.0,24.0,29.82,West,273,27.0,32.0,83,0.00,,,0.00,weatherlink.com 1.10,2013-01-04 13:07:00,
2013-01-04 08:22:00,28.1,24.0,29.83,WNW,288,16.0,22.0,83,0.00,,,0.00,weatherlink.com 1.10,2013-01-04 13:22:00,
2013-01-04 08:37:00,28.3,24.0,29.84,West,269,20.0,27.0,82,0.00,,,0.00,weatherlink.com 1.10,2013-01-04 13:37:00,
2013-01-04 08:52:00,28.2,24.0,29.83,WNW,287,25.0,27.0,83,0.00,,,0.00,weatherlink.com 1.10,2013-01-04 13:52:00,
2013-01-04 09:07:00,28.1,24.0,29.83,WNW,290,18.0,29.0,83,0.00,,,0.00,weatherlink.com 1.10,2013-01-04 14:07:00,
2013-01-04 09:22:00,28.1,24.0,29.84,WSW,248,9.0,23.0,83,0.00,,,0.00,weatherlink.com 1.10,2013-01-04 14:22:00,
2013-01-04 09:37:00,28.1,24.0,29.84,WNW,288,18.0,20.0,83,0.00,,,0.00,weatherlink.com 1.10,2013-01-04 14:37:00,
2013-01-04 09:52:00,28.1,24.0,29.84,WNW,292,14.0,26.0,83,0.00,,,0.00,weatherlink.com 1.10,2013-01-04 14:52:00,
2013-01-04 10:07:00,28.1,24.0,29.85,WNW,300,15.0,23.0,83,0.00,,,0.00,weatherlink.com 1.10,2013-01-04 15:07:00,
2013-01-04 10:22:00,28.1,24.0,29.86,WSW,245,17.0,22.0,84,0.00,,,0.00,weatherlink.com 1.10,2013-01-04 15:22:00,
2013-01-04 10:37:00,28.1,24.0,29.86,West,263,20.0,21.0,83,0.00,,,0.00,weatherlink.com 1.10,2013-01-04 15:37:00,
2013-01-04 10:52:00,28.0,24.0,29.86,West,279,14.0,24.0,84,0.00,,,0.00,weatherlink.com 1.10,2013-01-04 15:52:00,
2013-01-04 11:07:00,27.9,24.0,29.86,SW,235,8.0,21.0,84,0.00,,,0.00,weatherlink.com 1.10,2013-01-04 16:07:00,
2013-01-04 11:22:00,27.9,24.0,29.86,West,276,11.0,22.0,84,0.00,,,0.00,weatherlink.com 1.10,2013-01-04 16:22:00,
2013-01-04 11:37:00,27.9,24.0,29.85,WSW,242,17.0,18.0,84,0.00,,,0.00,weatherlink.com 1.10,2013-01-04 16:37:00,
2013-01-04 11:52:00,27.6,23.0,29.85,WSW,258,20.0,25.0,84,0.00,,,0.00,weatherlink.com 1.10,2013-01-04 16:52:00,
2013-01-04 12:07:00,27.5,23.0,29.85,West,278,20.0,22.0,84,0.00,,,0.00,weatherlink.com 1.10,2013-01-04 17:07:00,
2013-01-04 12:22:00,27.4,24.0,29.85,WSW,242,17.0,23.0,85,0.00,,,0.00,weatherlink.com 1.10,2013-01-04 17:22:00,
2013-01-04 12:37:00,27.3,23.0,29.84,WSW,252,8.0,24.0,85,0.00,,,0.00,weatherlink.com 1.10,2013-01-04 17:37:00,
2013-01-04 12:52:00,27.2,23.0,29.83,WSW,256,13.0,25.0,85,0.00,,,0.00,weatherlink.com 1.10,2013-01-04 17:52:00,
2013-01-04 13:07:00,27.4,24.0,29.83,WSW,244,16.0,25.0,85,0.00,,,0.00,weatherlink.com 1.10,2013-01-04 18:07:00,
2013-01-04 13:22:00,27.4,24.0,29.83,WNW,296,19.0,23.0,85,0.00,,,0.00,weatherlink.com 1.10,2013-01-04 18:22:00,
2013-01-04 13:37:00,27.5,24.0,29.83,WSW,249,15.0,24.0,86,0.00,,,0.00,weatherlink.com 1.10,2013-01-04 18:37:00,
2013-01-04 13:52:00,27.5,24.0,29.83,WSW,258,18.0,25.0,87,0.00,,,0.00,weatherlink.com 1.10,2013-01-04 18:52:00,
2013-01-04 14:07:00,27.5,24.0,29.83,WNW,301,15.0,24.0,87,0.00,,,0.00,weatherlink.com 1.10,2013-01-04 19:07:00,
2013-01-04 14:22:00,27.8,24.0,29.83,SW,219,15.0,25.0,87,0.00,,,0.00,weatherlink.com 1.10,2013-01-04 19:22:00,
2013-01-04 14:38:00,27.6,25.0,29.84,West,263,16.0,23.0,88,0.00,,,0.00,weatherlink.com 1.10,2013-01-04 19:38:00,
2013-01-04 14:52:00,27.7,25.0,29.84,West,263,12.0,24.0,88,0.00,,,0.00,weatherlink.com 1.10,2013-01-04 19:52:00,
2013-01-04 15:07:00,27.8,25.0,29.84,WNW,290,18.0,25.0,88,0.00,,,0.00,weatherlink.com 1.10,2013-01-04 20:07:00,
2013-01-04 15:22:00,28.1,25.0,29.85,WNW,301,20.0,25.0,88,0.00,,,0.00,weatherlink.com 1.10,2013-01-04 20:22:00,
2013-01-04 15:37:00,28.5,25.0,29.86,West,263,15.0,25.0,88,0.00,,,0.00,weatherlink.com 1.10,2013-01-04 20:37:00,
2013-01-04 15:52:00,29.0,26.0,29.86,West,281,11.0,25.0,88,0.00,,,0.00,weatherlink.com 1.10,2013-01-04 20:52:00,
2013-01-04 16:07:00,29.5,26.0,29.86,West,263,16.0,27.0,88,0.00,,,0.00,weatherlink.com 1.10,2013-01-04 21:07:00,
2013-01-04 16:22:00,30.0,27.0,29.87,WSW,248,19.0,25.0,88,0.00,,,0.00,weatherlink.com 1.10,2013-01-04 21:22:00,
2013-01-04 16:37:00,30.3,27.0,29.88,West,273,14.0,25.0,88,0.00,,,0.00,weatherlink.com 1.10,2013-01-04 21:37:00,
2013-01-04 16:52:00,30.7,27.0,29.88,WNW,287,13.0,24.0,87,0.00,,,0.00,weatherlink.com 1.10,2013-01-04 21:52:00,
2013-01-04 17:07:00,31.0,28.0,29.88,SW,234,17.0,24.0,87,0.00,,,0.00,weatherlink.com 1.10,2013-01-04 22:07:00,
2013-01-04 17:22:00,31.0,27.0,29.88,West,259,13.0,26.0,86,0.00,,,0.00,weatherlink.com 1.10,2013-01-04 22:22:00,
2013-01-04 17:37:00,31.0,28.0,29.89,WSW,239,13.0,21.0,87,0.00,,,0.00,weatherlink.com 1.10,2013-01-04 22:37:00,
2013-01-04 17:52:00,31.3,28.0,29.89,WNW,293,13.0,24.0,86,0.00,,,0.00,weatherlink.com 1.10,2013-01-04 22:52:00,
2013-01-04 18:07:00,31.5,28.0,29.90,WNW,282,15.0,20.0,86,0.00,,,0.00,weatherlink.com 1.10,2013-01-04 23:07:00,
2013-01-04 18:23:00,32.0,28.0,29.91,WNW,284,10.0,22.0,86,0.00,,,0.00,weatherlink.com 1.10,2013-01-04 23:23:00,
2013-01-04 18:38:00,32.5,28.0,29.91,West,279,16.0,22.0,84,0.00,,,0.00,weatherlink.com 1.10,2013-01-04 23:38:00,
2013-01-04 18:53:00,33.3,28.0,29.92,WNW,288,15.0,23.0,82,0.00,,,0.00,weatherlink.com 1.10,2013-01-04 23:53:00,
2013-01-04 19:08:00,33.5,29.0,29.93,WNW,290,12.0,24.0,83,0.00,,,0.00,weatherlink.com 1.10,2013-01-05 00:08:00,
2013-01-04 19:23:00,34.1,30.0,29.94,West,270,17.0,23.0,83,0.00,,,0.00,weatherlink.com 1.10,2013-01-05 00:23:00,
2013-01-04 19:38:00,34.2,30.0,29.95,WNW,286,15.0,20.0,85,0.00,,,0.00,weatherlink.com 1.10,2013-01-05 00:38:00,
2013-01-04 19:53:00,35.8,29.0,29.96,WNW,289,17.0,27.0,77,0.00,,,0.00,weatherlink.com 1.10,2013-01-05 00:53:00,
2013-01-04 20:08:00,36.8,29.0,29.96,WNW,299,16.0,21.0,73,0.00,,,0.00,weatherlink.com 1.10,2013-01-05 01:08:00,
2013-01-04 20:23:00,37.2,29.0,29.98,NW,305,17.0,30.0,73,0.00,,,0.00,weatherlink.com 1.10,2013-01-05 01:23:00,
2013-01-04 20:38:00,37.2,29.0,29.98,NNW,340,19.0,26.0,72,0.00,,,0.00,weatherlink.com 1.10,2013-01-05 01:38:00,
2013-01-04 20:53:00,36.2,27.0,29.98,NW,313,10.0,24.0,70,0.00,,,0.00,weatherlink.com 1.10,2013-01-05 01:53:00,
2013-01-04 21:08:00,35.7,27.0,29.98,NW,325,15.0,26.0,71,0.00,,,0.00,weatherlink.com 1.10,2013-01-05 02:08:00,
2013-01-04 21:23:00,35.5,27.0,29.98,NNW,337,14.0,27.0,71,0.00,,,0.00,weatherlink.com 1.10,2013-01-05 02:23:00,
2013-01-04 21:38:00,35.6,27.0,29.99,NW,322,18.0,28.0,72,0.00,,,0.00,weatherlink.com 1.10,2013-01-05 02:38:00,
2013-01-04 21:53:00,35.4,28.0,30.00,NW,309,10.0,23.0,73,0.00,,,0.00,weatherlink.com 1.10,2013-01-05 02:53:00,
2013-01-04 22:08:00,35.4,28.0,30.00,NNW,329,11.0,23.0,74,0.00,,,0.00,weatherlink.com 1.10,2013-01-05 03:08:00,
2013-01-04 22:23:00,35.2,29.0,30.01,NNW,342,15.0,26.0,77,0.00,,,0.00,weatherlink.com 1.10,2013-01-05 03:23:00,
2013-01-04 22:38:00,34.2,28.0,30.02,North,5,15.0,29.0,77,0.00,,,0.00,weatherlink.com 1.10,2013-01-05 03:38:00,
2013-01-04 22:53:00,33.8,26.0,30.02,North,355,16.0,27.0,74,0.00,,,0.00,weatherlink.com 1.10,2013-01-05 03:53:00,
2013-01-04 23:08:00,33.2,26.0,30.04,North,355,21.0,25.0,74,0.00,,,0.00,weatherlink.com 1.10,2013-01-05 04:08:00,
2013-01-04 23:23:00,32.8,25.0,30.05,North,355,15.0,29.0,73,0.00,,,0.00,weatherlink.com 1.10,2013-01-05 04:23:00,
2013-01-04 23:38:00,32.5,24.0,30.06,NNW,345,18.0,24.0,72,0.00,,,0.00,weatherlink.com 1.10,2013-01-05 04:38:00,